HST 1 20580U 90037B 26145.58358048 .00005914 00000+0 18730-3 0 9993 2 20580 28.4734 235.0290 0001294 250.2998 109.7458 15.30485063785107 POLAR 1 23802U 96013A 26144.93018106 .00000009 00000+0 00000+0 0 9996 2 23802 79.8303 227.3240 6447171 209.8792 88.4229 1.29846063144555 SWAS 1 25560U 98071A 26145.41962014 .00003372 00000+0 21671-3 0 9992 2 25560 69.8960 286.2245 0008590 280.7601 79.2595 15.09429627493832 CXO 1 25867U 99040B 26148.21998181 .00000426 00000+0 00000+0 0 9990 2 25867 55.8621 117.1917 7866111 310.4222 0.0280 0.37805843 17240 XMM-NEWTON 1 25989U 99066A 26147.40616136 -.00000041 00000+0 00000+0 0 9994 2 25989 64.5922 283.2490 4679187 65.2783 0.1338 0.50128828 22906 TERRA 1 25994U 99068A 26145.64088029 .00000327 00000+0 75570-4 0 9995 2 25994 97.9470 196.0795 0001152 334.3287 177.4537 14.61081907406318 CLUSTER II-FM7 (SAMBA) 1 26410U 00041A 26148.05847987 .00003702 00000+0 00000+0 0 9997 2 26410 149.8742 47.2072 9027932 264.1302 0.1148 0.44849367 20216 CLUSTER II-FM8 (TANGO) 1 26464U 00045B 26143.67364213 .00003023 00000+0 00000+0 0 9995 2 26464 150.1185 47.6077 9031581 264.3140 3.6732 0.44403233 20201 ODIN 1 26702U 01007A 26145.05170487 .00117209 00000+0 10307-2 0 9997 2 26702 97.3902 184.6319 0004661 172.6884 187.4446 15.68405857385766 TIMED 1 26998U 01055B 26145.66150003 .00001066 00000+0 10049-3 0 9993 2 26998 74.0676 280.3708 0000282 152.4038 207.7162 14.95228088327452 CORIOLIS 1 27640U 03001A 26145.43692972 .00000097 00000+0 66094-4 0 9997 2 27640 98.7129 152.6691 0012792 279.4325 80.5405 14.19937846210995 SORCE 1 27651U 03004A 26145.09288412 .00002562 00000+0 19459-3 0 9995 2 27651 39.9924 33.4247 0018644 248.3068 111.5741 15.03562587268420 MOST 1 27843U 03031D 26145.47310815 .00000064 00000+0 49525-4 0 9996 2 27843 98.7048 153.5161 0009111 323.7450 36.3109 14.21317046187489 SCISAT 1 1 27858U 03036A 26145.46796125 .00000449 00000+0 62019-4 0 9998 2 27858 73.9300 216.4812 0008641 283.7890 76.2324 14.81420246228080 SWIFT 1 28485U 04047A 26145.27199200 .00049358 00000+0 45309-3 0 9992 2 28485 20.5543 1.3512 0003270 0.9097 359.1354 15.65891595183261 HINODE (SOLAR-B) 1 29479U 06041A 26145.29282011 .00000664 00000+0 12249-3 0 9991 2 29479 98.0554 161.7830 0017502 5.8763 354.2644 14.68583925 51515 SHIJIAN-6 02A (SJ-6 02A) 1 29505U 06046A 26145.59578634 .00007470 00000+0 38533-3 0 9994 2 29505 97.6376 186.4966 0002559 185.7876 174.3328 15.16637691 68843 SHIJIAN-6 02B (SJ-6 02B) 1 29506U 06046B 26145.61919497 .00001481 00000+0 11962-3 0 9997 2 29506 97.7165 174.8176 0012970 129.2256 231.0122 15.01305961 67352 FGRST (GLAST) 1 33053U 08029A 26145.31025819 .00003300 00000+0 11955-3 0 9999 2 33053 25.5841 3.3104 0008642 57.7799 302.3576 15.23799438992340 SDO 1 36395U 10005A 26145.36038398 -.00000069 00000+0 00000+0 0 9994 2 36395 34.6069 86.6854 0001490 38.3240 145.7714 1.00271525 59834 CRYOSAT 2 1 36508U 10013A 26145.61353653 .00000204 00000+0 49820-4 0 9999 2 36508 92.0333 271.8176 0002439 85.0312 275.1174 14.51901177854801 X-SAT 1 37389U 11015C 26145.61935118 .00000198 00000+0 10144-3 0 9990 2 37389 98.3502 123.7202 0015130 52.2448 308.0101 14.25198640784463 GCOM-W1 (SHIZUKU) 1 38337U 12025A 26145.38148759 .00000399 00000+0 98691-4 0 9994 2 38337 98.2015 86.2841 0001779 91.7982 19.8655 14.57099119745714 NUSTAR 1 38358U 12031A 26145.66668981 .00021958 00000+0 13070-2 0 9999 2 38358 6.0260 203.0399 0007474 142.5611 56.5051 15.08545111 1308 NEOSSAT 1 39089U 13009D 26145.49165866 .00000138 00000+0 62451-4 0 9998 2 39089 98.4174 326.0649 0010156 319.2073 40.8352 14.35817339693488 BRITE-AUSTRIA 1 39091U 13009F 26145.43191156 .00000154 00000+0 66985-4 0 9990 2 39091 98.3990 325.4317 0009233 313.0698 46.9715 14.36531641693783 IRIS 1 39197U 13033A 26145.26857480 .00000944 00000+0 11431-3 0 9996 2 39197 97.9345 344.6170 0025329 36.7938 323.5010 14.85830628696976 HISAKI (SPRINT-A) 1 39253U 13049A 26145.51847918 .00000142 00000+0 10124-3 0 9997 2 39253 29.7218 335.2589 0136795 193.1843 166.5131 13.55541699628342 CASSIOPE 1 39265U 13055A 26145.57859171 .00032555 -64940-6 36613-3 0 9992 2 39265 80.9139 94.1300 0299417 138.2090 224.2438 15.23225942664229 STSAT-3 1 39422U 13066G 26145.60555046 .00002299 00000+0 17711-3 0 9996 2 39422 97.6163 115.8653 0010396 107.7519 252.4841 15.02579403680817 SWARM B 1 39451U 13067A 26145.61211218 .00002784 00000+0 99473-4 0 9995 2 39451 87.7448 349.1765 0003234 98.4837 261.6778 15.28394565679791 SWARM A 1 39452U 13067B 26145.56885702 .00010638 00000+0 18634-3 0 9991 2 39452 87.3333 64.6380 0003203 86.2514 273.9113 15.50429072702744 SWARM C 1 39453U 13067C 26145.56876324 .00010517 00000+0 18421-3 0 9992 2 39453 87.3333 63.2193 0003195 85.9511 274.2115 15.50430856702709 BRITE-CA1 (TORONTO) 1 40020U 14033L 26145.34416847 .00000569 00000+0 93336-4 0 9999 2 40020 97.9709 274.6977 0078343 351.0681 8.9127 14.72640483638856 OCO 2 1 40059U 14035A 26145.56303700 .00000333 00000+0 83993-4 0 9997 2 40059 98.2011 87.2023 0001423 88.0919 272.0443 14.57088798632750 BRITE-PL2 (HEWELIUSZ) 1 40119U 14049B 26145.27503137 .00001735 00000+0 16598-3 0 9996 2 40119 97.9074 257.1032 0014023 179.8666 180.2560 14.94494037638022 MMS 1 1 40482U 15011A 26145.58335648 -.00000117 00000+0 00000+0 0 9994 2 40482 71.8295 349.1004 8341312 166.9221 152.7380 0.28352392 1373 MMS 2 1 40483U 15011B 26145.58335648 -.00000117 00000+0 00000+0 0 9995 2 40483 71.8296 349.1026 8342085 166.9278 152.7255 0.28352411 1372 MMS 3 1 40484U 15011C 26145.58335648 -.00000117 00000+0 00000+0 0 9996 2 40484 71.8326 349.1071 8341288 166.9223 152.7239 0.28352380 1378 MMS 4 1 40485U 15011D 26145.58335648 -.00000117 00000+0 00000+0 0 9997 2 40485 71.8291 349.1028 8340873 166.9300 152.7120 0.28352371 1376 ASTROSAT 1 40930U 15052A 26145.15090552 .00001511 00000+0 10243-3 0 9994 2 40930 5.9989 321.1626 0007588 63.2978 296.7926 14.82459854576405 DAMPE 1 41173U 15078A 26145.61596358 .00000865 00000+0 31699-4 0 9998 2 41173 97.4565 150.9739 0012660 148.6194 211.5804 15.30717500581099 PISAT 1 41784U 16059B 26145.46120804 .00000803 00000+0 14452-3 0 9997 2 41784 97.8179 146.8917 0027487 278.7208 81.0885 14.68937166516402 HXMT (HUIYAN) 1 42758U 17034A 26145.63650289 .00004822 00000+0 23989-3 0 9997 2 42758 43.0145 308.5912 0031559 359.6803 0.4021 15.18241137494232 FLYING LAPTOP 1 42831U 17042G 26145.58734962 .00003512 00000+0 27890-3 0 9993 2 42831 97.4590 302.0063 0018276 197.2979 162.7625 15.00975583483069 ZHANGHENG 1-01 (CSES-1) 1 43194U 18015C 26145.63576292 .00006087 00000+0 27674-3 0 9993 2 43194 97.6855 310.8507 0015817 346.7866 13.2952 15.21023310461213 SALSAT 1 46495U 20068K 26144.98774178 .00007014 00000+0 24856-3 0 9991 2 46495 97.8855 146.6473 0010593 33.8053 326.3859 15.29404891311816 IXPE 1 49954U 21121A 26145.66668981 .00010714 00000+0 58428-3 0 9998 2 49954 0.2300 127.5632 0006724 99.4082 202.4004 15.10009634 5494 SMILE 1 69123U 26109A 26144.65318427 -.00001976 00000+0 -42379-3 0 9994 2 69123 70.0007 229.2745 0009123 259.5159 100.4951 14.57062785 802